Time,TemperatureF,DewpointF,PressureIn,WindDirection,WindDirectionDegrees,WindSpeedMPH,WindSpeedGustMPH,Humidity,HourlyPrecipIn,Conditions,Clouds,dailyrainin,SoftwareType,DateUTC
2013-12-06 00:03:00,10.0,7.0,30.36,SSW,203,0.0,1.0,86,0.00,,,0.00,weatherlink.com 1.10,2013-12-06 07:03:00,
2013-12-06 00:18:00,9.6,6.0,30.36,SSW,203,0.0,1.0,85,0.00,,,0.00,weatherlink.com 1.10,2013-12-06 07:18:00,
2013-12-06 00:33:00,9.2,6.0,30.37,SSW,203,0.0,1.0,85,0.00,,,0.00,weatherlink.com 1.10,2013-12-06 07:33:00,
2013-12-06 00:48:00,9.1,6.0,30.37,SSW,203,0.0,1.0,85,0.00,,,0.00,weatherlink.com 1.10,2013-12-06 07:48:00,
2013-12-06 01:03:00,8.9,5.0,30.37,SSW,203,0.0,1.0,85,0.00,,,0.00,weatherlink.com 1.10,2013-12-06 08:03:00,
2013-12-06 01:18:00,8.7,5.0,30.37,SSW,203,0.0,1.0,85,0.00,,,0.00,weatherlink.com 1.10,2013-12-06 08:18:00,
2013-12-06 01:33:00,8.6,5.0,30.37,SSW,203,0.0,1.0,84,0.00,,,0.00,weatherlink.com 1.10,2013-12-06 08:33:00,
2013-12-06 01:48:00,8.2,4.0,30.37,SSW,203,0.0,0.0,84,0.00,,,0.00,weatherlink.com 1.10,2013-12-06 08:48:00,
2013-12-06 02:03:00,7.8,4.0,30.38,SSW,203,0.0,1.0,84,0.00,,,0.00,weatherlink.com 1.10,2013-12-06 09:03:00,
2013-12-06 02:18:00,7.5,4.0,30.38,SSW,203,0.0,1.0,84,0.00,,,0.00,weatherlink.com 1.10,2013-12-06 09:18:00,
2013-12-06 02:33:00,7.2,3.0,30.39,SSW,203,0.0,1.0,83,0.00,,,0.00,weatherlink.com 1.10,2013-12-06 09:33:00,
2013-12-06 02:48:00,6.9,3.0,30.39,SSW,203,0.0,0.0,84,0.00,,,0.00,weatherlink.com 1.10,2013-12-06 09:48:00,
2013-12-06 03:03:00,6.6,3.0,30.40,SSW,203,0.0,1.0,83,0.00,,,0.00,weatherlink.com 1.10,2013-12-06 10:03:00,
2013-12-06 03:18:00,6.5,3.0,30.41,SSW,203,0.0,1.0,84,0.00,,,0.00,weatherlink.com 1.10,2013-12-06 10:18:00,
2013-12-06 03:33:00,6.3,3.0,30.41,SSW,203,0.0,0.0,84,0.00,,,0.00,weatherlink.com 1.10,2013-12-06 10:33:00,
2013-12-06 03:48:00,5.9,2.0,30.42,SSW,203,0.0,1.0,83,0.00,,,0.00,weatherlink.com 1.10,2013-12-06 10:48:00,
2013-12-06 04:03:00,5.6,2.0,30.42,SSW,203,0.0,0.0,84,0.00,,,0.00,weatherlink.com 1.10,2013-12-06 11:03:00,
2013-12-06 04:18:00,5.6,2.0,30.43,SSW,203,0.0,0.0,84,0.00,,,0.00,weatherlink.com 1.10,2013-12-06 11:18:00,
2013-12-06 04:33:00,5.3,1.0,30.43,SSW,203,0.0,0.0,83,0.00,,,0.00,weatherlink.com 1.10,2013-12-06 11:33:00,
2013-12-06 04:48:00,5.0,1.0,30.43,SSW,203,0.0,0.0,83,0.00,,,0.00,weatherlink.com 1.10,2013-12-06 11:48:00,
2013-12-06 05:03:00,4.7,1.0,30.44,SSW,203,0.0,0.0,83,0.00,,,0.00,weatherlink.com 1.10,2013-12-06 12:03:00,
2013-12-06 05:18:00,4.6,1.0,30.45,SSW,203,0.0,0.0,83,0.00,,,0.00,weatherlink.com 1.10,2013-12-06 12:18:00,
2013-12-06 05:33:00,4.5,0.0,30.45,SSW,203,0.0,1.0,83,0.00,,,0.00,weatherlink.com 1.10,2013-12-06 12:33:00,
2013-12-06 05:48:00,4.4,0.0,30.46,SSW,203,0.0,1.0,83,0.00,,,0.00,weatherlink.com 1.10,2013-12-06 12:48:00,
2013-12-06 06:03:00,4.2,0.0,30.46,SSW,203,0.0,0.0,83,0.00,,,0.00,weatherlink.com 1.10,2013-12-06 13:03:00,
2013-12-06 06:18:00,4.1,0.0,30.47,SSW,203,0.0,1.0,84,0.00,,,0.00,weatherlink.com 1.10,2013-12-06 13:18:00,
2013-12-06 06:34:00,4.3,0.0,30.47,SSW,203,0.0,1.0,83,0.00,,,0.00,weatherlink.com 1.10,2013-12-06 13:34:00,
2013-12-06 06:49:00,4.5,1.0,30.48,SSW,203,0.0,1.0,84,0.00,,,0.00,weatherlink.com 1.10,2013-12-06 13:49:00,
2013-12-06 07:19:00,5.0,1.0,30.50,SSW,203,0.0,1.0,84,0.00,,,0.00,weatherlink.com 1.10,2013-12-06 14:19:00,
2013-12-06 07:34:00,5.0,4.0,30.51,SSW,203,0.0,0.0,94,0.00,,,0.00,weatherlink.com 1.10,2013-12-06 14:34:00,
2013-12-06 07:49:00,5.1,1.0,30.52,SSW,203,0.0,0.0,84,0.00,,,0.00,weatherlink.com 1.10,2013-12-06 14:49:00,
2013-12-06 08:04:00,6.9,3.0,30.52,SSW,203,0.0,0.0,85,0.00,,,0.00,weatherlink.com 1.10,2013-12-06 15:04:00,
2013-12-06 08:19:00,8.5,5.0,30.53,SSW,203,0.0,1.0,84,0.00,,,0.00,weatherlink.com 1.10,2013-12-06 15:19:00,
2013-12-06 08:34:00,10.8,7.0,30.53,SSW,203,0.0,1.0,84,0.00,,,0.00,weatherlink.com 1.10,2013-12-06 15:34:00,
2013-12-06 08:49:00,13.5,10.0,30.54,SSW,203,0.0,0.0,84,0.00,,,0.00,weatherlink.com 1.10,2013-12-06 15:49:00,
2013-12-06 09:04:00,16.0,11.0,30.55,SSW,203,0.0,0.0,82,0.00,,,0.00,weatherlink.com 1.10,2013-12-06 16:04:00,
2013-12-06 09:19:00,17.6,12.0,30.56,SSW,203,0.0,1.0,80,0.00,,,0.00,weatherlink.com 1.10,2013-12-06 16:19:00,
2013-12-06 09:34:00,19.2,13.0,30.57,WSW,257,0.0,3.0,77,0.00,,,0.00,weatherlink.com 1.10,2013-12-06 16:34:00,
2013-12-06 09:49:00,20.7,13.0,30.57,SW,214,0.0,4.0,73,0.00,,,0.00,weatherlink.com 1.10,2013-12-06 16:49:00,
2013-12-06 10:04:00,22.2,14.0,30.58,SSW,200,0.0,4.0,70,0.00,,,0.00,weatherlink.com 1.10,2013-12-06 17:04:00,
2013-12-06 10:19:00,22.8,13.0,30.59,SSE,162,0.0,5.0,66,0.00,,,0.00,weatherlink.com 1.10,2013-12-06 17:19:00,
2013-12-06 10:34:00,23.3,13.0,30.59,SSW,203,2.0,4.0,64,0.00,,,0.00,weatherlink.com 1.10,2013-12-06 17:34:00,
2013-12-06 10:49:00,23.7,13.0,30.59,WSW,251,2.0,6.0,64,0.00,,,0.00,weatherlink.com 1.10,2013-12-06 17:49:00,
2013-12-06 11:04:00,24.4,14.0,30.58,SW,219,1.0,4.0,64,0.00,,,0.00,weatherlink.com 1.10,2013-12-06 18:04:00,
2013-12-06 11:19:00,24.8,14.0,30.59,South,186,4.0,5.0,64,0.00,,,0.00,weatherlink.com 1.10,2013-12-06 18:19:00,
2013-12-06 11:35:00,25.7,14.0,30.59,SW,229,2.0,5.0,62,0.00,,,0.00,weatherlink.com 1.10,2013-12-06 18:35:00,
2013-12-06 11:50:00,25.7,14.0,30.58,NW,315,0.0,6.0,62,0.00,,,0.00,weatherlink.com 1.10,2013-12-06 18:50:00,
2013-12-06 12:05:00,26.2,14.0,30.57,SW,223,0.0,5.0,61,0.00,,,0.00,weatherlink.com 1.10,2013-12-06 19:05:00,
2013-12-06 12:20:00,27.0,15.0,30.56,SW,217,1.0,4.0,60,0.00,,,0.00,weatherlink.com 1.10,2013-12-06 19:20:00,
2013-12-06 12:35:00,27.6,15.0,30.55,SW,223,1.0,4.0,59,0.00,,,0.00,weatherlink.com 1.10,2013-12-06 19:35:00,
2013-12-06 12:50:00,28.1,15.0,30.54,SW,231,2.0,6.0,59,0.01,,,0.01,weatherlink.com 1.10,2013-12-06 19:50:00,
2013-12-06 13:05:00,28.6,15.0,30.53,SE,136,1.0,4.0,58,0.01,,,0.01,weatherlink.com 1.10,2013-12-06 20:05:00,
2013-12-06 13:20:00,28.6,15.0,30.52,SW,233,3.0,5.0,56,0.01,,,0.01,weatherlink.com 1.10,2013-12-06 20:20:00,
2013-12-06 13:35:00,28.4,14.0,30.53,SSW,212,0.0,6.0,55,0.01,,,0.01,weatherlink.com 1.10,2013-12-06 20:35:00,
2013-12-06 13:50:00,28.3,14.0,30.52,WSW,257,1.0,7.0,56,0.00,,,0.01,weatherlink.com 1.10,2013-12-06 20:50:00,
2013-12-06 14:05:00,29.0,14.0,30.52,WSW,247,3.0,5.0,54,0.00,,,0.01,weatherlink.com 1.10,2013-12-06 21:05:00,
2013-12-06 14:20:00,29.7,14.0,30.52,WSW,237,2.0,5.0,52,0.00,,,0.01,weatherlink.com 1.10,2013-12-06 21:20:00,
2013-12-06 14:35:00,30.4,14.0,30.51,West,263,1.0,5.0,51,0.00,,,0.01,weatherlink.com 1.10,2013-12-06 21:35:00,
2013-12-06 14:50:00,30.3,12.0,30.51,SW,233,0.0,5.0,47,0.00,,,0.01,weatherlink.com 1.10,2013-12-06 21:50:00,
2013-12-06 15:05:00,30.8,12.0,30.50,SSW,208,2.0,5.0,46,0.00,,,0.01,weatherlink.com 1.10,2013-12-06 22:05:00,
2013-12-06 15:20:00,30.7,12.0,30.50,South,175,0.0,4.0,46,0.00,,,0.01,weatherlink.com 1.10,2013-12-06 22:20:00,
2013-12-06 15:35:00,30.0,10.0,30.50,SE,142,1.0,5.0,44,0.00,,,0.01,weatherlink.com 1.10,2013-12-06 22:35:00,
2013-12-06 15:50:00,29.0,8.0,30.50,SW,229,0.0,5.0,42,0.00,,,0.01,weatherlink.com 1.10,2013-12-06 22:50:00,
2013-12-06 16:05:00,28.6,9.0,30.50,South,184,1.0,5.0,43,0.00,,,0.01,weatherlink.com 1.10,2013-12-06 23:05:00,
2013-12-06 16:20:00,28.3,8.0,30.49,South,179,1.0,6.0,43,0.00,,,0.01,weatherlink.com 1.10,2013-12-06 23:20:00,
2013-12-06 16:35:00,28.1,9.0,30.50,SSE,151,0.0,3.0,44,0.00,,,0.01,weatherlink.com 1.10,2013-12-06 23:35:00,
2013-12-06 16:50:00,27.9,9.0,30.50,SSE,151,0.0,1.0,45,0.00,,,0.01,weatherlink.com 1.10,2013-12-06 23:50:00,
2013-12-06 17:05:00,27.3,8.0,30.50,SSE,150,0.0,5.0,45,0.00,,,0.01,weatherlink.com 1.10,2013-12-07 00:05:00,
2013-12-06 17:20:00,26.3,9.0,30.50,SSE,150,0.0,0.0,49,0.00,,,0.01,weatherlink.com 1.10,2013-12-07 00:20:00,
2013-12-06 17:35:00,25.3,10.0,30.51,SSE,150,0.0,0.0,53,0.00,,,0.01,weatherlink.com 1.10,2013-12-07 00:35:00,
2013-12-06 17:50:00,24.1,11.0,30.51,SSE,150,0.0,0.0,58,0.00,,,0.01,weatherlink.com 1.10,2013-12-07 00:50:00,
2013-12-06 18:05:00,23.0,12.0,30.51,SSE,150,0.0,0.0,62,0.00,,,0.01,weatherlink.com 1.10,2013-12-07 01:05:00,
2013-12-06 18:20:00,21.7,12.0,30.52,SSE,150,0.0,1.0,67,0.00,,,0.01,weatherlink.com 1.10,2013-12-07 01:20:00,
2013-12-06 18:35:00,20.5,12.0,30.52,SSE,150,0.0,0.0,70,0.00,,,0.01,weatherlink.com 1.10,2013-12-07 01:35:00,
2013-12-06 18:50:00,19.4,12.0,30.52,SSE,150,0.0,1.0,73,0.00,,,0.01,weatherlink.com 1.10,2013-12-07 01:50:00,
2013-12-06 19:05:00,18.5,12.0,30.52,SSE,150,0.0,0.0,75,0.00,,,0.01,weatherlink.com 1.10,2013-12-07 02:05:00,
2013-12-06 19:20:00,17.3,11.0,30.52,SSE,150,0.0,1.0,77,0.00,,,0.01,weatherlink.com 1.10,2013-12-07 02:20:00,
2013-12-06 19:35:00,16.3,10.0,30.53,SSE,150,0.0,1.0,77,0.00,,,0.01,weatherlink.com 1.10,2013-12-07 02:35:00,
2013-12-06 19:50:00,15.5,10.0,30.53,SSE,150,0.0,0.0,79,0.00,,,0.01,weatherlink.com 1.10,2013-12-07 02:50:00,
2013-12-06 20:05:00,14.9,10.0,30.53,SSE,150,0.0,1.0,80,0.00,,,0.01,weatherlink.com 1.10,2013-12-07 03:05:00,
2013-12-06 20:20:00,14.2,9.0,30.53,SSE,150,0.0,1.0,80,0.00,,,0.01,weatherlink.com 1.10,2013-12-07 03:20:00,
2013-12-06 20:35:00,13.9,9.0,30.53,SSE,150,0.0,1.0,81,0.00,,,0.01,weatherlink.com 1.10,2013-12-07 03:35:00,
2013-12-06 20:50:00,13.7,9.0,30.53,SSE,150,0.0,1.0,81,0.00,,,0.01,weatherlink.com 1.10,2013-12-07 03:50:00,
2013-12-06 21:05:00,13.5,9.0,30.53,SSE,150,0.0,0.0,81,0.00,,,0.01,weatherlink.com 1.10,2013-12-07 04:05:00,
2013-12-06 21:20:00,13.5,8.0,30.53,SSE,150,0.0,1.0,80,0.00,,,0.01,weatherlink.com 1.10,2013-12-07 04:20:00,
2013-12-06 21:35:00,13.0,8.0,30.53,SSE,150,0.0,1.0,80,0.00,,,0.01,weatherlink.com 1.10,2013-12-07 04:35:00,
2013-12-06 21:50:00,12.3,8.0,30.53,SSE,150,0.0,0.0,81,0.00,,,0.01,weatherlink.com 1.10,2013-12-07 04:50:00,
2013-12-06 22:05:00,11.9,7.0,30.53,SSE,150,0.0,0.0,81,0.00,,,0.01,weatherlink.com 1.10,2013-12-07 05:05:00,
2013-12-06 22:20:00,11.4,7.0,30.53,SSE,150,0.0,0.0,82,0.00,,,0.01,weatherlink.com 1.10,2013-12-07 05:20:00,
2013-12-06 22:35:00,10.9,7.0,30.53,SSE,150,0.0,0.0,83,0.00,,,0.01,weatherlink.com 1.10,2013-12-07 05:35:00,
2013-12-06 22:50:00,10.6,6.0,30.53,SSE,150,0.0,1.0,83,0.00,,,0.01,weatherlink.com 1.10,2013-12-07 05:50:00,
2013-12-06 23:05:00,10.5,6.0,30.53,SSE,150,0.0,1.0,83,0.00,,,0.01,weatherlink.com 1.10,2013-12-07 06:05:00,
2013-12-06 23:20:00,10.2,6.0,30.53,SSE,150,0.0,1.0,83,0.00,,,0.01,weatherlink.com 1.10,2013-12-07 06:20:00,
2013-12-06 23:35:00,9.7,6.0,30.52,SSE,150,0.0,1.0,83,0.00,,,0.01,weatherlink.com 1.10,2013-12-07 06:35:00,
2013-12-06 23:50:00,9.4,5.0,30.52,SSE,150,0.0,0.0,83,0.00,,,0.01,weatherlink.com 1.10,2013-12-07 06:50:00,